Tracking 17142 objects as of 29-May-2015
HD Live streaming from Space Station

SDS-4

Track SDS-4 now!
10-day predictions
SDS-4 is classified as:


NORAD ID: 38339
Int'l Code: 2012-025C
Perigee: 662.1 km
Apogee: 674.7 km
Inclination: 98.3 °
Period: 98.0 minutes
Semi major axis: 7039 km
RCS: 0.47 m2 (medium)
Launch date: May 17, 2012
Source: Japan (JPN)
Your satellite tracking list
Your tracking list is empty





NASA's NSSDC Master Catalog

Two Line Element Set (TLE):
1 38339U 12025C   15148.94989006  .00000361  00000-0  68930-4 0  9990
2 38339 098.3116 113.0418 0008931 120.0109 240.1984 14.69937719162360

Source of the keplerian elements: AFSPC

N2YO: 298